Погода Верхний Уфалей

Погода Верхний Уфалей : погода сейчас, прогноз погоды и архив. Всё, что Вы хотите узнать о погоде Верхний Уфалей!

Поиск расширенной информации на нашем сайте:

Другие новости

Новости СМИ2

Главная страница сайта

Новости сайта

02.10.2013

Напоминаем, что на нашем новом сайте вы можете получить высокодетализированные прогнозы погоды по пунктам России, СНГ и мира (включающие важные для авиации метеовеличины, такие как направление и скорость ветра, видимость, явления погоды, количество и форма облачности, нижняя и верхняя граница облачности), а также ознакомиться с разнообразными материалами по авиационной метеорологии и подборкой полезных ссылок на эту тему.

Сайт Метеоцентр.Азия посвящён разработке технологий оптимизации авиаметеорологического обслуживания, включая проектирование и перспективное создание нескольких автоматизированных авиаметеорологических систем:
- система выпуска высокодетальных прогностических карт явлений погоды для нижнего воздушного пространства по России и ближнему зарубежью;
- система верификации прогнозов TAF (выпускаемых синоптиками официальных АМСГ РФ и ближнего зарубежья) и AUTOTAF (выпускаемых сайтом Метеоцентр.Азия) - выявление ошибок, онлайн-сопоставление с фактической погодой METAR, автоматическое внесение коррективов в прогнозы при резком отклонении фактической погоды от прогноза, подсчёт оправдываемости прогнозов по элементам и в целом;
- система обработки, анализа и отображения авиаметеорологической информации для применения провайдерами метеорологической информации.

Рекомендуем: Набор столовое серебро цена.

Погода Верхний Уфалей - сегодня

Время (UTC), дата Ветер
(°,м/с) 
Видим.   Явления Облачность Т
(°С)
Тd
(°С)
f(%) Тe
(°С)
Pmin
(гПа)
dP
(гПа)
Po
(мм)
O2
(г/м3)
Тmin Tmax R s Состояние
почвы
09 15.01.17 200 (Ю) 20000 м    ясно 
-9.3 -11.2 86 -9  1036.6  739  309           
12 15.01.17 тихо ()   20000 м    ясно 
-10.1 -12.1 85 -10  1037.6  0.8  739  310           
15 15.01.17 тихо ()   20000 м    ясно 
-12.3 -14.3 85 -12  1038.2  0.1  739  313    -7.1       
18 15.01.17 110 (В) 20000 м    ясно 
-14.1 -15.4 90 -14  1038.8  0.2  739  315           
21 15.01.17 070 (В) 20000 м    ясно 
-18.4 -20.3 85 -19  1039.9  0.2  740  321           
00 16.01.17 тихо ()   20000 м    ясно 
-19 -20.9 85 -19  1040.7  0.6  740  322           
03 16.01.17 тихо ()   20000 м    6/0 средняя, верхняя 
[Ac trans|Ci fib]
-18.3 -20.3 84 -18  1040.5  740  321  -20.7      55  равномерный
сухой снег
100% 
06 16.01.17 тихо ()   20000 м    ясно 
-18.9 -21 83 -19  1041.3  0.6  740  322  -21.2         
09 16.01.17 180 (Ю) 20000 м    ясно 
-6.9 -9.8 80 -7  1038.6  -0.2  740  307           
12 16.01.17 тихо ()   20000 м    ясно 
-8.6 -11.4 80 -9  1039.6  0.6  741  309           
15 16.01.17 тихо ()   20000 м    ясно 
-12.5 -13.9 89 -13  1040.6  0.2  741  314    -4.3       
18 16.01.17 тихо ()   20000 м    ясно 
-17.4 -19.3 85 -17  1041.7  0.1  741  320           
21 16.01.17 тихо ()   20000 м    ясно 
-20 -22.1 83 -20  1042.6  0.3  741  324           
00 17.01.17 тихо ()   20000 м    6/0 верхняя 
[Ci fib]
-20.9 -23.4 80 -21  1043.2  0.4  741  325           
03 17.01.17 тихо ()   20000 м    3/0 верхняя 
[Ci fib]
-22.4 -24.8 81 -22  1043.2  -0.4  741  327  -22.4      55  равномерный
сухой снег
100% 
06 17.01.17 тихо ()   10 км  дым  4/0 верхняя 
[Ci fib]
-21 -23.5 80 -21  1042.8  741  325  -22.7         
09 17.01.17 тихо ()   10 км  дым  ясно 
-11.1 -17.3 60 -11  1039.7  -1  740  312           
12 17.01.17 тихо ()   10 км  дым  ясно 
-12.5 -16 75 -13  1039.6  -0.3  740  314           
15 17.01.17 тихо ()   1000 м  дымка  ясно 
-16.1 -17.8 87 -16  1040.2  -0.2  740  318    -5.9       
18 17.01.17 тихо ()   0500 м  переохл. туман  ясно 
-18.8 -20.9 83 -19  1039.7  -1  739  321           
21 17.01.17 тихо ()   0500 м  переохл. туман  ясно 
-20.5 -22.8 82 -21  1038.8  -1.2  738  323           
00 18.01.17 тихо ()   2000 м  дымка{туман}  ясно 
-22.1 -24.7 79 -22  1038.3  -0.8  738  325           
03 18.01.17 тихо ()   4000 м  дымка  ясно 
-23.4 -26 79 -23  1037.3  -1.2  737  326  -24      54  равномерный
сухой снег
100% 
06 18.01.17 тихо ()   4000 м  дымка  ясно 
-23 -25.6 79 -23  1036.3  -0.9  736  326  -24.6         
09 18.01.17 тихо ()   10 км  дым  3/0 верхняя 
[Ci fib]
-11.9 -15.3 76 -12  1032.6  -1.2  735  311           
Время (UTC), дата Ветер
(°,м/с) 
Видим.   Явления Облачность Т
(°С)
Тd
(°С)
f(%) Тe
(°С)
Pmin
(гПа)
dP
(гПа)
Po
(мм)
O2
(г/м3)
Тmin Tmax R s Состояние
почвы

Для получения пояснительной информации подведите курсор к названию столбца.

ПОГОДА Верхний Уфалей - архив

Всё, что Вы хотите узнать о погоде Верхний Уфалей - удобно и подробно!

Выберите нужную дату (начиная с 1 января 2015* года) и нажмите кнопку "Найти".
Будут отображены архивные сводки погоды по пункту Верхний Уфалей, начиная с указанной даты.


Отображать данные в формате CSV (для использования в таблицах Excel)


Внимание! Наш архив погоды предназначен исключительно для личного некоммерческого использования в познавательных целях. Если Вам необходимы официальные справки о состоянии погоды (для производственных, юридических, коммерческих и т.п. целей), обращайтесь в органы Росгидромета.

*Примечание: данная дата относится к архиву по метеостанциям СССР (Россия, СНГ, Балтия).
Архив по метеостанциям Зарубежной Европы и Азии (кроме Китая) хранится 10 дней, по другим регионам земного шара (Китай, Африка, Америка, Австралия, Океания) - 1 день.

Верхний Уфалей - район местоположения метеостанции


Название, широта, долгота, высота метеостанции:
Верхний Уфалей 56.1°ш. 60.3°д. 399 м над ур. моря [Российская Федерация]

Дополнительная информация

В oтличие oт бoльшинства пoгoдных сайтoв мы публикуем пoдрoбную метеoинфoрмацию в детальнoм прoфессиoнальнoм фoрмате.

Характеристики температуры и влажнoсти вoздуха измеряются на высoте 2 м в тени вдали oт зданий и деревьев.
Скoрoсть ветра измеряется на высoте 10 м (на урoвне рoста челoвека скoрoсть ветра ниже в 1.5-2 раза). Если метеoстанция нахoдится в гoрoде или в лесу, тo скoрoсть ветра занижена на 2-4 м/с пo сравнению с oткрытым местoм. Скoрoсть ветра над акватoриями крупных рек и oзёр, а также на вершинах хoлмoв на 2-5 м/с выше, чем в oбычных услoвиях.
Атмoсфернoе давление в разных тoчках местнoсти мoжет значительнo oтличаться oт давления на метеoстанции, в зависимoсти oт услoвий рельефа (при пoдъёме на 10 м давление пoнижается примернo на 1 мм рт.ст.).